Regional Weather Roundup
Issued by NWS

Home | Current Version | Previous Version | Graphics & Text | Print | Product List | Glossary On
Versions: 1 2 3 4 5 6 7 8 9 10 11 12 13 14 15 16 17 18 19 20 21 22 23 24 25 26 27 28 29 30 31 32 33 34 35 36 37 38 39 40 41 42 43 44 45 46 47 48 49 50
000
ASUS43 KDTX 230601
RWRMI
MICHIGAN HOURLY REGIONAL WEATHER ROUNDUP
NATIONAL WEATHER SERVICE DETROIT/PONTIAC MI
200 AM EDT TUE SEP 23 2014

NOTE: "FAIR" INDICATES FEW OR NO CLOUDS BELOW 12,000 FEET WITH NO
SIGNIFICANT WEATHER AND/OR OBSTRUCTION TO VISIBILITY.

MIZ047>049-052>055-059>063-066>070-074>076-081>083-230700-
SOUTHEAST LOWER MICHIGAN

CITY           SKY/WX    TMP DP  RH WIND       PRES   REMARKS
ADRIAN         CLEAR     44  43  96 CALM      30.29R
6HR MIN TEMP:  44; 6HR MAX TEMP:  56;

ALMA           CLEAR     49  46  90 SW6       30.26R
ANN ARBOR      CLEAR     42  40  92 CALM      30.27S FOG
BAD AXE        CLEAR     47  46  97 S3        30.25R
6HR MIN TEMP:  45; 6HR MAX TEMP:  52;

CARO           CLEAR     45  44  96 CALM      30.24S
DETROIT CITY   CLEAR     51  43  74 CALM      30.28R
6HR MIN TEMP:  51; 6HR MAX TEMP:  60;

DETROIT        CLEAR     50  45  83 CALM      30.28R
6HR MIN TEMP:  49; 6HR MAX TEMP:  58;

FLINT          CLEAR     48  44  86 SW3       30.27R
6HR MIN TEMP:  48; 6HR MAX TEMP:  56;

GROSSE ILE     CLEAR     52  45  76 W5        30.27R
HILLSDALE      CLEAR     42  42 100 CALM      30.28R FOG
HOWELL         CLEAR     45  44  97 CALM      30.26S
6HR MIN TEMP:  44; 6HR MAX TEMP:  53;


CITY           SKY/WX    TMP DP  RH WIND       PRES   REMARKS
JACKSON        CLEAR     44  42  93 CALM      30.28S
6HR MIN TEMP:  44; 6HR MAX TEMP:  54;

LAMBERTVILLE   CLEAR     45  43  93 CALM      30.29R
LANSING        CLEAR     47  44  90 SW5       30.27S
6HR MIN TEMP:  47; 6HR MAX TEMP:  57;

LAPEER         FAIR      43  42  96 CALM      30.26R
MASON          CLEAR     46  44  95 CALM      30.27S
MONROE         CLEAR     45  45 100 CALM      30.27R
MT. CLEMENS    CLEAR     47  44  89 SW3       30.25R
6HR MIN TEMP:  47; 6HR MAX TEMP:  55;

PONTIAC        CLEAR     46  42  86 CALM      30.26R
6HR MIN TEMP:  46; 6HR MAX TEMP:  56;

PORT HOPE        N/A     51  47  86 SW6       30.21R
6HR MIN TEMP:  51; 6HR MAX TEMP:  55;

PORT HURON     CLEAR     41  41 100 CALM      30.27R FOG
TRI CITIES     CLEAR     49  46  90 SW8       30.26R
6HR MIN TEMP:  49; 6HR MAX TEMP:  58;

TROY           CLEAR     51  45  81 CALM      30.29R
SAGINAW HB     CLEAR     48  48 100 SW6       30.25R
$$
MIZ043>046-050>051-056>058-064>065-071>073-077>080-230700-
SOUTHWEST LOWER MICHIGAN

CITY           SKY/WX    TMP DP  RH WIND       PRES   REMARKS
BATTLE CREEK   CLEAR     47  43  86 CALM      30.28S
6HR MIN TEMP:  46; 6HR MAX TEMP:  54;

BENTON HARBOR  CLEAR     44  43  96 CALM      30.28S
6HR MIN TEMP:  43; 6HR MAX TEMP:  51;

BIG RAPIDS     CLEAR     50  49  97 SW5       30.24R
6HR MIN TEMP:  46; 6HR MAX TEMP:  54;

COLDWATER      CLEAR     44  43  97 CALM      30.29R
6HR MIN TEMP:  44; 6HR MAX TEMP:  57;

FREMONT        FAIR      46  45  97 CALM      30.25R FOG
HOLLAND        CLEAR     49  44  83 S5        30.27S
6HR MIN TEMP:  48; 6HR MAX TEMP:  54;

GRAND RAPIDS   CLEAR     47  44  90 CALM      30.27R
6HR MIN TEMP:  47; 6HR MAX TEMP:  57;

IONIA          FAIR      48  45  89 SW3       30.26R
KALAMAZOO      CLEAR     45  43  93 CALM      30.28S
6HR MIN TEMP:  44; 6HR MAX TEMP:  54;

LUDINGTON      CLEAR     56  54  91 SW7       30.22S
6HR MIN TEMP:  55; 6HR MAX TEMP:  56;

MARSHALL       CLEAR     42  41  97 CALM      30.28R
MOUNT PLEASANT CLEAR     49  46  91 SW3       30.24R
6HR MIN TEMP:  48; 6HR MAX TEMP:  55;

MUSKEGON       CLEAR     48  45  89 CALM      30.26R
6HR MIN TEMP:  47; 6HR MAX TEMP:  56;

SOUTH HAVEN    CLEAR     46  45  96 CALM      30.28R
$$
MIZ016>042-230700-
NORTHERN LOWER MICHIGAN

CITY           SKY/WX    TMP DP  RH WIND       PRES   REMARKS
ALPENA         CLEAR     51  46  83 SW6       30.18R
6HR MIN TEMP:  51; 6HR MAX TEMP:  56;

BEAVER ISLAND  CLEAR     58  55  90 SW6       30.16R
6HR MIN TEMP:  57; 6HR MAX TEMP:  58;

BELLAIRE       CLEAR     51  47  86 S3        30.20S
6HR MIN TEMP:  51; 6HR MAX TEMP:  54;

CADILLAC       CLEAR     46  46 100 W3        30.22R
CHARLEVOIX     CLEAR     53  50  90 S7        30.20S
6HR MIN TEMP:  53; 6HR MAX TEMP:  57;

FRANKFORT      PTCLDY    57  53  87 SW3       30.20S
GAYLORD        CLEAR     51  44  77 W12       30.19R
6HR MIN TEMP:  49; 6HR MAX TEMP:  53;

GRAYLING       CLEAR     49  46  89 SW5       30.21R
6HR MIN TEMP:  49; 6HR MAX TEMP:  54;

HARBOR SPRINGS CLEAR     56  50  80 W3        30.17R
HOUGHTON LAKE  CLEAR     50  46  86 SW8       30.22R
6HR MIN TEMP:  50; 6HR MAX TEMP:  57;

MANISTEE       CLEAR     45  43  93 E3        30.22S
OSCODA         CLEAR     48  45  91 SW7       30.20R
PELLSTON       CLEAR     55  50  83 W5        30.16S
6HR MIN TEMP:  54; 6HR MAX TEMP:  56;

ROGERS CITY    CLEAR     52  48  86 SW10      30.16R
TRAVERSE CITY  CLEAR     54  47  77 SW5       30.19S
6HR MIN TEMP:  54; 6HR MAX TEMP:  57;

$$
MIZ007>008-015-230700-
EASTERN UPPER MICHIGAN

CITY           SKY/WX    TMP DP  RH WIND       PRES   REMARKS
KINROSS        CLEAR     52  52 100 SW5       30.12R
6HR MIN TEMP:  52; 6HR MAX TEMP:  55;

MACKINAC ISLAN CLEAR     57  55  93 SW10G17   30.14R
6HR MIN TEMP:  56; 6HR MAX TEMP:  58;

NEWBERRY       CLEAR     51  48  89 SW9       30.11S
S. S. MARIE    CLEAR     52  50  93 SW12      30.10S
6HR MIN TEMP:  51; 6HR MAX TEMP:  54;

$$
MIZ004>006-011>014-085-230700-
CENTRAL UPPER MICHIGAN

CITY           SKY/WX    TMP DP  RH WIND       PRES   REMARKS
MANISTIQUE     CLEAR     55  51  85 W5        30.13S
ESCANABA       CLEAR     50  46  87 W5        30.15S
6HR MIN TEMP:  50; 6HR MAX TEMP:  61;

MENOMINEE      CLEAR     54  46  76 W3        30.17S
6HR MIN TEMP:  52; 6HR MAX TEMP:  63;

SAWYER-GWINN   CLEAR     50  46  87 CALM      30.14R
$$
MIZ001>003-009>011-084-230700-
WESTERN UPPER MICHIGAN

CITY           SKY/WX    TMP DP  RH WIND       PRES   REMARKS
IRON MOUNTAIN  CLEAR     49  46  90 CALM      30.15S
6HR MIN TEMP:  48; 6HR MAX TEMP:  61;

HOUGHTON       CLEAR     59  50  72 W14       30.11R
6HR MIN TEMP:  58; 6HR MAX TEMP:  61;

COPPER HARBOR    N/A     65  49  56 NW8       30.06R
6HR MIN TEMP:  63; 6HR MAX TEMP:  67;

IRONWOOD       CLEAR     52  48  87 W7        30.14S
6HR MIN TEMP:  52; 6HR MAX TEMP:  63;

$$

ABBREVIATIONS USED IN REMARKS
   TC - TEMPERATURE IN CELSIUS
  WCI - WIND CHILL INDEX
   HX - HEAT INDEX
  VSB - VISIBILITY




USA.gov is the U.S. government's official web portal to all federal, state and local government web resources and services.